Rensselaer, IN

10:01 PM CST on December 04, 2016 (GMT -0600)
Jasper County

Weather History for KRZL - March, 2013

Change the Weather History Date:

Sunday, March 24, 2013

  Actual Average (KVPZ) Record (KVPZ)
Temperature  
Mean Temperature 32 °F 41 °F  
Max Temperature 35 °F 50 °F 78 °F (1939)
Min Temperature 30 °F 31 °F 10 °F (1974)
Degree Days  
Heating Degree Days 32 24  
Month to date heating degree days 685  
Since 1 July heating degree days 5417  
Cooling Degree Days 0 0  
Month to date cooling degree days 0  
Year to date cooling degree days 0  
Moisture  
Dew Point 29 °F    
Average Humidity 87    
Maximum Humidity 100    
Minimum Humidity 65    
Precipitation  
Precipitation 0.00 in 0.09 in 1.42 in (1947)
Month to date precipitation 1.84  
Year to date precipitation 5.01  
Sea Level Pressure  
Sea Level Pressure 29.74 in    
Wind  
Wind Speed 14 mph (NE)    
Max Wind Speed 25 mph    
Max Gust Speed 33 mph    
Visibility 6 miles    
Events Snow    
T = Trace of Precipitation, MM = Missing Value Source: NWS Daily Summary

Daily Weather History Graph

Daily Weather History Graph

Search for Another Location

Airport or City:

Trip Planner

Search our weather history database for the weather conditions in past years. The results will help you decide how hot, cold, wet, or windy it might be!

Date:

Astronomy

Mar. 24, 2013 Rise Set
Actual Time 6:44 AM CDT 7:05 PM CDT
Civil Twilight 6:17 AM CDT 7:32 PM CDT
Nautical Twilight 5:45 AM CDT 8:05 PM CDT
Astronomical Twilight 5:12 AM CDT 8:38 PM CDT
Moon 4:32 PM CDT (3/24) 4:56 AM CDT (3/24)
Length of Visible Light 13h 15m
Length of Day
12h 20m
Waxing Gibbous, 92% of the Moon is Illuminated
Mar 24
Waxing Gibbous
Mar 27
Full
Apr 2
Last Quarter
Apr 10
New
Apr 18
First Quarter

Hourly Weather History & Observations

Time (CDT) Temp. Windchill Dew Point Humidity Pressure Visibility Wind Dir Wind Speed Gust Speed Precip Events Conditions
12:15 AM 32.0 °F 23.6 °F 26.6 °F 80% 29.98 in 10.0 mi NNE 10.4 mph - N/A   Unknown
12:35 AM 32.0 °F 23.6 °F 24.8 °F 75% 29.97 in 10.0 mi North 10.4 mph - N/A   Unknown
12:55 AM 32.0 °F 23.0 °F 24.8 °F 75% 29.96 in 10.0 mi NNE 11.5 mph - N/A   Unknown
1:15 AM 32.0 °F 23.0 °F 24.8 °F 75% 29.96 in 10.0 mi NNE 11.5 mph - N/A   Unknown
1:35 AM 30.2 °F 21.9 °F 24.8 °F 80% 29.96 in 10.0 mi NNE 9.2 mph 16.1 mph N/A   Unknown
1:55 AM 30.2 °F 20.2 °F 24.8 °F 80% 29.95 in 10.0 mi NNE 12.7 mph - N/A   Unknown
2:15 AM 30.2 °F 20.2 °F 26.6 °F 86% 29.95 in 10.0 mi NNE 12.7 mph - N/A   Unknown
2:35 AM 32.0 °F 24.2 °F 26.6 °F 80% 29.96 in 10.0 mi NNE 9.2 mph - N/A   Unknown
2:55 AM 32.0 °F 22.5 °F 26.6 °F 80% 29.95 in 10.0 mi NE 12.7 mph - N/A   Unknown
3:15 AM 32.0 °F 23.0 °F 26.6 °F 80% 29.94 in 10.0 mi NNE 11.5 mph - N/A   Unknown
3:35 AM 32.0 °F 23.0 °F 26.6 °F 80% 29.93 in 10.0 mi NE 11.5 mph - N/A   Unknown
3:55 AM 32.0 °F 22.5 °F 26.6 °F 80% 29.93 in 10.0 mi NNE 12.7 mph - N/A   Unknown
4:15 AM 30.2 °F 21.3 °F 26.6 °F 86% 29.93 in 10.0 mi NE 10.4 mph - N/A   Unknown
4:55 AM 30.2 °F 21.9 °F 26.6 °F 86% 29.91 in 10.0 mi NE 9.2 mph - N/A   Unknown
5:15 AM 30.2 °F 21.9 °F 26.6 °F 86% 29.91 in 10.0 mi NE 9.2 mph - N/A   Unknown
5:35 AM 32.0 °F 23.6 °F 26.6 °F 80% 29.90 in 10.0 mi NE 10.4 mph - N/A   Unknown
5:55 AM 32.0 °F 23.0 °F 26.6 °F 80% 29.88 in 10.0 mi NE 11.5 mph - N/A   Unknown
6:15 AM 32.0 °F 22.5 °F 26.6 °F 80% 29.87 in 10.0 mi ENE 12.7 mph - N/A   Unknown
6:35 AM 32.0 °F 21.2 °F 26.6 °F 80% 29.87 in 10.0 mi ENE 16.1 mph - N/A Snow Light Snow
6:55 AM 32.0 °F 22.1 °F 26.6 °F 80% 29.86 in 3.0 mi ENE 13.8 mph 19.6 mph N/A Snow Light Snow
7:15 AM 32.0 °F 21.6 °F 26.6 °F 80% 29.84 in 10.0 mi ENE 15.0 mph 20.7 mph N/A   Unknown
7:35 AM 32.0 °F 20.8 °F 28.4 °F 87% 29.84 in 2.5 mi ENE 17.3 mph 24.2 mph N/A Snow Light Snow
7:55 AM 32.0 °F 21.2 °F 28.4 °F 87% 29.83 in 2.5 mi ENE 16.1 mph 20.7 mph N/A Snow Light Snow
8:15 AM 30.2 °F 19.8 °F 28.4 °F 93% 29.84 in 3.0 mi ENE 13.8 mph - N/A Snow Light Snow
8:35 AM 30.2 °F 18.9 °F 30.2 °F 100% 29.83 in 1.5 mi ENE 16.1 mph - N/A Snow Light Snow
8:55 AM 32.0 °F 21.2 °F 30.2 °F 93% 29.82 in 2.5 mi ENE 16.1 mph - N/A   Mist
9:15 AM 32.0 °F 20.1 °F 30.2 °F 93% 29.79 in 4.0 mi ENE 19.6 mph - N/A   Mist
9:35 AM 32.0 °F 20.8 °F 30.2 °F 93% 29.78 in 5.0 mi ENE 17.3 mph 26.5 mph N/A   Mist
9:55 AM 32.0 °F 20.5 °F 30.2 °F 93% 29.76 in 5.0 mi ENE 18.4 mph 26.5 mph N/A   Mist
10:15 AM 32.0 °F 20.1 °F 30.2 °F 93% 29.75 in 7.0 mi ENE 19.6 mph 26.5 mph N/A   Unknown
10:35 AM 32.0 °F 20.5 °F 30.2 °F 93% 29.76 in 10.0 mi ENE 18.4 mph 23.0 mph N/A   Unknown
10:55 AM 32.0 °F 20.8 °F 30.2 °F 93% 29.76 in 10.0 mi ENE 17.3 mph 23.0 mph N/A   Unknown
11:15 AM 32.0 °F 21.2 °F 30.2 °F 93% 29.76 in 5.0 mi ENE 16.1 mph - N/A   Mist
11:35 AM 32.0 °F 20.8 °F 30.2 °F 93% 29.74 in 5.0 mi NE 17.3 mph - N/A Snow Light Snow
11:55 AM 32.0 °F 21.2 °F 30.2 °F 93% 29.72 in 7.0 mi NE 16.1 mph 23.0 mph N/A   Unknown
12:15 PM 32.0 °F 20.1 °F 30.2 °F 93% 29.71 in 10.0 mi ENE 19.6 mph 24.2 mph N/A   Unknown
12:35 PM 32.0 °F 20.1 °F 30.2 °F 93% 29.69 in 10.0 mi NE 19.6 mph 25.3 mph N/A   Unknown
12:55 PM 33.8 °F 21.3 °F 30.2 °F 87% 29.67 in 10.0 mi NE 24.2 mph 29.9 mph N/A   Unknown
1:15 PM 33.8 °F 21.9 °F 30.2 °F 87% 29.65 in 10.0 mi NE 21.9 mph 25.3 mph N/A   Unknown
1:35 PM 33.8 °F 21.6 °F 30.2 °F 87% 29.63 in 10.0 mi NE 23.0 mph 28.8 mph N/A   Unknown
1:55 PM 33.8 °F 21.0 °F 28.4 °F 81% 29.62 in 10.0 mi NE 25.3 mph 29.9 mph N/A   Unknown
2:15 PM 33.8 °F 22.5 °F 28.4 °F 81% 29.60 in 10.0 mi NE 19.6 mph 27.6 mph N/A   Unknown
2:35 PM 33.8 °F 22.8 °F 28.4 °F 81% 29.60 in 10.0 mi NE 18.4 mph 26.5 mph N/A   Unknown
2:55 PM 35.6 °F 23.7 °F 28.4 °F 75% 29.58 in 10.0 mi NE 24.2 mph 28.8 mph N/A   Unknown
3:15 PM 35.6 °F 24.5 °F 26.6 °F 70% 29.56 in 10.0 mi NE 20.7 mph 33.4 mph N/A   Unknown
3:35 PM 35.6 °F 23.4 °F 26.6 °F 70% 29.57 in 10.0 mi NE 25.3 mph 31.1 mph N/A   Unknown
3:55 PM 35.6 °F 23.4 °F 24.8 °F 65% 29.57 in 10.0 mi NE 25.3 mph 29.9 mph N/A   Unknown
4:15 PM 35.6 °F 25.2 °F 24.8 °F 65% 29.58 in 10.0 mi NE 18.4 mph 26.5 mph N/A   Unknown
4:35 PM 35.6 °F 26.2 °F 24.8 °F 65% 29.61 in 10.0 mi NE 15.0 mph 23.0 mph N/A   Unknown
4:55 PM 33.8 °F 25.8 °F 26.6 °F 75% 29.62 in 5.0 mi NE 10.4 mph 18.4 mph N/A Snow Light Snow
5:15 PM 33.8 °F 22.2 °F 28.4 °F 81% 29.61 in 1.5 mi NE 20.7 mph 25.3 mph N/A Snow Light Snow
5:35 PM 32.0 °F 20.5 °F 30.2 °F 93% 29.60 in 0.8 mi NE 18.4 mph 26.5 mph N/A Snow Light Snow
5:55 PM 32.0 °F 22.1 °F 30.2 °F 93% 29.60 in 1.2 mi NE 13.8 mph - N/A Snow Light Snow
6:15 PM 32.0 °F 21.6 °F 30.2 °F 93% 29.59 in 1.0 mi NNE 15.0 mph - N/A Snow Light Snow
6:35 PM 32.0 °F 22.1 °F 32.0 °F 100% 29.59 in 1.2 mi NNE 13.8 mph - N/A Snow Light Snow
6:55 PM 32.0 °F 23.0 °F 32.0 °F 100% 29.60 in 1.0 mi NNE 11.5 mph - N/A Snow Light Snow
7:15 PM 32.0 °F 23.0 °F 32.0 °F 100% 29.60 in 1.0 mi North 11.5 mph - N/A Snow Snow
7:35 PM 32.0 °F 23.6 °F 32.0 °F 100% 29.60 in 1.0 mi North 10.4 mph - N/A Snow Snow
7:55 PM 32.0 °F 22.5 °F 32.0 °F 100% 29.60 in 1.2 mi North 12.7 mph - N/A Snow Light Snow
8:15 PM 32.0 °F 22.1 °F 32.0 °F 100% 29.60 in 1.0 mi North 13.8 mph 20.7 mph N/A Snow Snow
8:55 PM 32.0 °F 21.6 °F 32.0 °F 100% 29.60 in 1.0 mi North 15.0 mph 20.7 mph N/A Snow Snow
9:15 PM 32.0 °F 21.2 °F 32.0 °F 100% 29.60 in 1.0 mi North 16.1 mph - N/A Snow Snow
9:35 PM 32.0 °F 19.8 °F 32.0 °F 100% 29.60 in 1.0 mi North 20.7 mph 26.5 mph N/A Snow Snow
9:55 PM 32.0 °F 21.6 °F 32.0 °F 100% 29.60 in 1.0 mi North 15.0 mph - N/A Snow Light Snow
10:15 PM 32.0 °F 20.8 °F 32.0 °F 100% 29.60 in 1.0 mi North 17.3 mph 21.9 mph N/A Snow Snow
10:35 PM 32.0 °F 20.8 °F 32.0 °F 100% 29.60 in 1.2 mi North 17.3 mph 24.2 mph N/A Snow Light Snow
10:55 PM 32.0 °F 21.2 °F 32.0 °F 100% 29.61 in 1.0 mi North 16.1 mph 26.5 mph N/A Snow Snow
11:15 PM 32.0 °F 22.1 °F 30.2 °F 93% 29.62 in 1.0 mi North 13.8 mph 25.3 mph N/A Snow Snow
11:35 PM 32.0 °F 20.8 °F 30.2 °F 93% 29.62 in 1.0 mi North 17.3 mph 23.0 mph N/A Snow Snow
11:55 PM 30.2 °F 20.8 °F 30.2 °F 100% 29.63 in 0.8 mi North 11.5 mph 17.3 mph N/A Snow Snow